Tracking 20241 objects as of 26-Jan-2020
HD Live streaming from Space Station
objects crossing your sky now

NSTAR A

Track NSTAR A now!
NSTAR A is classified as:


NORAD ID: 23651
Int'l Code: 1995-044A
Perigee: 36,021.0 km
Apogee: 36,215.0 km
Inclination: 10.5 °
Period: 1,452.7 minutes
Semi major axis: 42489 km
RCS: 15.8489 m2 (large)
Launch date: August 29, 1995
Source: Japan (JPN)
Launch site: FRENCH GUIANA (FRGUI)

Voice and TV broadcast to Japan and neighboring region.
aabbcc
Your satellite tracking list
Your tracking list is empty




NASA's NSSDC Master Catalog

Two Line Element Set (TLE):
1 23651U 95044A   20025.50421091 -.00000107  00000-0  00000+0 0  9998
2 23651  10.4832  36.6073 0022825 316.0746  52.2311  0.99126078 88820
Source of the keplerian elements: AFSPC